EN

Hourly Weather Nowy Tomyśl

Today, 13 May, Thursday

Time Temperature Precipitation Wind Pressure Humidity
00:00 +14°C° 0.5 mm 4 mps 746 mmHg 97%
01:00 +13°C° 0.5 mm 3 mps 746 mmHg 97%
02:00 +13°C° 0.5 mm 3 mps 745 mmHg 97%
03:00 +13°C° 0.5 mm 3 mps 745 mmHg 97%
04:00 +14°C° 0.5 mm 2 mps 745 mmHg 98%
05:00 +14°C° 0.1 mm 2 mps 745 mmHg 96%
06:00 +15°C° 0.1 mm 2 mps 745 mmHg 94%
07:00 +15°C° 0.1 mm 2 mps 745 mmHg 91%
08:00 +16°C° 0 mm 3 mps 744 mmHg 85%
09:00 +17°C° 0 mm 3 mps 744 mmHg 78%
10:00 +18°C° 0 mm 3 mps 744 mmHg 72%
11:00 +19°C° 0 mm 3 mps 744 mmHg 68%
12:00 +20°C° 0 mm 3 mps 744 mmHg 65%
13:00 +20°C° 0 mm 3 mps 743 mmHg 61%
14:00 +20°C° 0.2 mm 2 mps 743 mmHg 64%
15:00 +20°C° 0.2 mm 2 mps 743 mmHg 67%
16:00 +19°C° 0.2 mm 2 mps 743 mmHg 69%
17:00 +18°C° 0.1 mm 2 mps 743 mmHg 72%
18:00 +17°C° 0.1 mm 2 mps 743 mmHg 75%
19:00 +17°C° 0.1 mm 2 mps 743 mmHg 78%
20:00 +15°C° 0.1 mm 2 mps 743 mmHg 82%
21:00 +14°C° 0.1 mm 2 mps 743 mmHg 87%
22:00 +12°C° 0.1 mm 3 mps 744 mmHg 91%
23:00 +12°C° 0 mm 3 mps 744 mmHg 93%

Tomorrow, 14 May, Friday

Time Temperature Precipitation Wind Pressure Humidity
00:00 +12°C° 0 mm 3 mps 744 mmHg 94%
01:00 +11°C° 0 mm 3 mps 744 mmHg 95%
02:00 +11°C° 0 mm 3 mps 744 mmHg 95%
03:00 +11°C° 0 mm 3 mps 744 mmHg 95%
04:00 +11°C° 0 mm 3 mps 744 mmHg 94%
05:00 +11°C° 0.1 mm 4 mps 745 mmHg 95%
06:00 +11°C° 0.1 mm 4 mps 745 mmHg 95%
07:00 +11°C° 0.1 mm 4 mps 745 mmHg 95%
08:00 +11°C° 0.1 mm 4 mps 745 mmHg 94%
09:00 +11°C° 0.1 mm 4 mps 746 mmHg 93%
10:00 +11°C° 0.1 mm 4 mps 746 mmHg 92%
11:00 +10°C° 0.1 mm 5 mps 746 mmHg 91%
12:00 +10°C° 0.1 mm 5 mps 747 mmHg 90%
13:00 +10°C° 0.1 mm 5 mps 747 mmHg 89%
14:00 +10°C° 0 mm 5 mps 747 mmHg 89%
15:00 +10°C° 0 mm 5 mps 747 mmHg 89%
16:00 +10°C° 0 mm 4 mps 747 mmHg 89%
17:00 +10°C° 0 mm 4 mps 747 mmHg 90%
18:00 +10°C° 0 mm 4 mps 747 mmHg 90%
19:00 +10°C° 0 mm 4 mps 748 mmHg 90%
20:00 +10°C° 0 mm 4 mps 748 mmHg 91%
21:00 +10°C° 0 mm 4 mps 748 mmHg 92%
22:00 +9°C° 0 mm 3 mps 748 mmHg 93%
23:00 +9°C° 0 mm 3 mps 748 mmHg 94%

Day after tomorrow, 15 May, Saturday

Time Temperature Precipitation Wind Pressure Humidity
00:00 +9°C° 0 mm 3 mps 748 mmHg 95%
01:00 +9°C° 0 mm 3 mps 748 mmHg 95%
02:00 +8°C° 0 mm 3 mps 749 mmHg 96%
03:00 +7°C° 0 mm 3 mps 749 mmHg 97%
04:00 +7°C° 0 mm 3 mps 749 mmHg 97%
05:00 +8°C° 0 mm 3 mps 749 mmHg 91%
06:00 +9°C° 0 mm 3 mps 749 mmHg 86%
07:00 +12°C° 0 mm 2 mps 749 mmHg 80%
08:00 +13°C° 0 mm 2 mps 749 mmHg 74%
09:00 +14°C° 0 mm 3 mps 749 mmHg 69%
10:00 +17°C° 0 mm 3 mps 749 mmHg 63%
11:00 +17°C° 0.1 mm 3 mps 749 mmHg 60%
12:00 +18°C° 0.1 mm 3 mps 748 mmHg 57%
13:00 +19°C° 0.1 mm 3 mps 748 mmHg 54%
14:00 +19°C° 0.2 mm 3 mps 748 mmHg 57%
15:00 +18°C° 0.2 mm 3 mps 748 mmHg 61%
16:00 +18°C° 0.2 mm 3 mps 747 mmHg 64%
17:00 +17°C° 0.4 mm 3 mps 747 mmHg 69%
18:00 +16°C° 0.4 mm 3 mps 747 mmHg 75%
19:00 +13°C° 0.4 mm 3 mps 747 mmHg 80%
20:00 +13°C° 0.4 mm 3 mps 747 mmHg 83%
21:00 +12°C° 0.4 mm 3 mps 747 mmHg 86%
22:00 +13°C° 0.4 mm 2 mps 747 mmHg 89%
23:00 +12°C° 0.2 mm 2 mps 747 mmHg 91%

16 May, Sunday

Time Temperature Precipitation Wind Pressure Humidity
00:00 +12°C° 0.2 mm 2 mps 747 mmHg 92%
01:00 +10°C° 0.2 mm 2 mps 747 mmHg 94%
02:00 +10°C° 0 mm 2 mps 747 mmHg 94%
03:00 +10°C° 0 mm 3 mps 747 mmHg 93%
04:00 +9°C° 0 mm 3 mps 747 mmHg 93%
05:00 +10°C° 0 mm 3 mps 747 mmHg 92%
06:00 +10°C° 0 mm 3 mps 747 mmHg 91%
07:00 +10°C° 0 mm 2 mps 747 mmHg 90%
08:00 +12°C° 0 mm 3 mps 747 mmHg 82%
09:00 +13°C° 0 mm 3 mps 747 mmHg 74%
10:00 +14°C° 0 mm 3 mps 747 mmHg 66%
11:00 +16°C° 0 mm 3 mps 747 mmHg 63%
12:00 +16°C° 0 mm 3 mps 747 mmHg 60%
13:00 +16°C° 0 mm 3 mps 747 mmHg 57%
14:00 +17°C° 0 mm 2 mps 746 mmHg 57%
15:00 +17°C° 0 mm 2 mps 746 mmHg 58%
16:00 +17°C° 0 mm 2 mps 746 mmHg 58%
17:00 +16°C° 0.1 mm 2 mps 746 mmHg 62%
18:00 +15°C° 0.1 mm 2 mps 746 mmHg 67%
19:00 +14°C° 0.1 mm 2 mps 746 mmHg 72%
20:00 +13°C° 0.1 mm 2 mps 746 mmHg 77%
21:00 +12°C° 0.1 mm 2 mps 746 mmHg 82%
22:00 +10°C° 0.1 mm 2 mps 746 mmHg 87%
23:00 +10°C° 0 mm 2 mps 746 mmHg 89%

17 May, Monday

Time Temperature Precipitation Wind Pressure Humidity
00:00 +9°C° 0 mm 2 mps 746 mmHg 92%
01:00 +9°C° 0 mm 2 mps 746 mmHg 94%
02:00 +8°C° 0 mm 2 mps 746 mmHg 94%
03:00 +8°C° 0 mm 2 mps 746 mmHg 94%
04:00 +8°C° 0 mm 2 mps 746 mmHg 94%
05:00 +9°C° 0 mm 2 mps 746 mmHg 89%
06:00 +10°C° 0 mm 2 mps 747 mmHg 84%
07:00 +12°C° 0 mm 3 mps 747 mmHg 80%
08:00 +13°C° 0 mm 3 mps 747 mmHg 73%
09:00 +14°C° 0 mm 3 mps 747 mmHg 66%
10:00 +17°C° 0 mm 3 mps 747 mmHg 58%
11:00 +17°C° 0.2 mm 4 mps 747 mmHg 59%
12:00 +17°C° 0.2 mm 4 mps 747 mmHg 59%
13:00 +17°C° 0.2 mm 4 mps 747 mmHg 60%
14:00 +17°C° 0.1 mm 4 mps 747 mmHg 60%
15:00 +17°C° 0.1 mm 4 mps 747 mmHg 60%
16:00 +17°C° 0.1 mm 4 mps 747 mmHg 61%
17:00 +15°C° 0.1 mm 4 mps 747 mmHg 67%
18:00 +14°C° 0.1 mm 3 mps 747 mmHg 74%
19:00 +13°C° 0.1 mm 3 mps 747 mmHg 81%
20:00 +13°C° 0 mm 2 mps 747 mmHg 83%
21:00 +12°C° 0 mm 2 mps 747 mmHg 86%
22:00 +10°C° 0 mm 2 mps 748 mmHg 89%
23:00 +9°C° 0 mm 2 mps 748 mmHg 91%

18 May, Tuesday

Time Temperature Precipitation Wind Pressure Humidity
00:00 +9°C° 0 mm 3 mps 748 mmHg 92%
01:00 +8°C° 0 mm 3 mps 748 mmHg 94%
02:00 +8°C° 0 mm 3 mps 748 mmHg 95%
03:00 +7°C° 0 mm 3 mps 748 mmHg 95%
04:00 +7°C° 0 mm 3 mps 748 mmHg 96%
05:00 +8°C° 0 mm 3 mps 749 mmHg 91%
06:00 +8°C° 0 mm 4 mps 749 mmHg 87%
07:00 +10°C° 0 mm 4 mps 749 mmHg 82%
08:00 +11°C° 0 mm 4 mps 750 mmHg 77%
09:00 +13°C° 0 mm 5 mps 750 mmHg 72%
10:00 +14°C° 0 mm 5 mps 750 mmHg 68%
11:00 +14°C° 0.1 mm 6 mps 750 mmHg 68%
12:00 +14°C° 0.1 mm 6 mps 751 mmHg 68%
13:00 +13°C° 0.1 mm 6 mps 751 mmHg 69%
14:00 +14°C° 0 mm 6 mps 751 mmHg 67%
15:00 +14°C° 0 mm 6 mps 751 mmHg 65%
16:00 +14°C° 0 mm 6 mps 752 mmHg 64%
17:00 +13°C° 0 mm 5 mps 752 mmHg 67%
18:00 +12°C° 0 mm 5 mps 752 mmHg 70%
19:00 +12°C° 0 mm 4 mps 752 mmHg 73%
20:00 +11°C° 0 mm 4 mps 753 mmHg 78%
21:00 +10°C° 0 mm 4 mps 753 mmHg 83%
22:00 +8°C° 0 mm 4 mps 754 mmHg 88%
23:00 +7°C° 0 mm 4 mps 754 mmHg 90%
Show more

We Need Your Consent

Meteoprog and our Service Providers may store and access personal data such as cookies, device identifiers or other similar technologies on your device and process such data to personalise content and ads, as well as provide social media features and to analyse the traffic.

  • Store and/or access information on your device

    Cookies, device identifiers or other information can be stored or accessed on your device for the purposes indicated above.

  • Personalised ads and content, ad and content measurement, audience insights, and products development

    Ads and content can be personalised based on a profile. More data can be added to better personalise ads and content. Ad and content performance can be measured. Insights about the audience who saw the ads and content can be derived. Such data can be used to develop or improve user’s experience, systems and software.

By clicking ‘I Agree’ you will allow the use of indicated cookies, device identifiers, web beacons or other similar technologies. Your settings can be changed in the browser on your device.

For certain purposes, legitimate interests may be relied on, rather than consent. You can read more about this in our Privacy and Cookie Policy.